User: anonymous   Login
Location: Theydon Bois
(51.6750°N, 0.1050°E)
Time: 15:07:37
(UTC+00:00)
Language:

Cosmos 1939 Rocket - Orbit

View from above orbital plane
View from above orbital plane
View from above satellite
View from above satellite

Ground track
Ground track

The orbit data is extracted from the following two-line orbital elements,

1 19046U 88032B   17347.50383062 -.00000258  00000-0 -14689-4 0  9999
2 19046  97.5080  29.0184 0041010  83.1493 277.4396 15.02357689599567
Epoch (UTC): 13 December 2017 12:05:30
Eccentricity: 0.0041010
inclination: 97.5080°
perigee height: 531 km
apogee height: 588 km
right ascension of ascending node: 29.0184°
argument of perigee: 83.1493°
revolutions per day: 15.02357689
mean anomaly at epoch: 277.4396°
orbit number at epoch: 59956

The dashed part of the orbit path shows where the satellite is in the earth's shadow,  

DLR